WB0RXX Weather Reports


Display with metric or nautical units.
time (UTC)temp
F
wind
direction
speed
MPH
gust
MPH
rain 1hr
in
rain 24hr
in
rain mn
in
humidity
%
barometer
mb
20260503020019 64 145 0.0 1.0 0.00 0.00 0.00 34 1008.7
20260503015003 64 355 1.0 3.0 0.00 0.00 0.00 34 1008.8
20260503014020 64 157 0.0 0.0 0.00 0.00 0.00 36 1008.8
20260503013004 65 157 0.0 1.0 0.00 0.00 0.00 32 1008.8
20260503012003 65 220 1.0 1.0 0.00 0.00 0.00 34 1008.8
20260503011005 66 212 3.0 5.0 0.00 0.00 0.00 33 1008.5
20260503010002 66 180 2.0 6.0 0.00 0.00 0.00 32 1008.6
20260503005003 66 203 2.0 7.0 0.00 0.00 0.00 31 1008.8
20260503004003 67 165 1.0 4.0 0.00 0.00 0.00 32 1009.1
20260503003002 67 215 1.0 2.0 0.00 0.00 0.00 31 1009.4
20260503002004 67 210 1.0 5.0 0.00 0.00 0.00 31 1009.6
20260503001004 67 210 1.0 7.0 0.00 0.00 0.00 31 1010.0
20260503000004 67 219 0.0 1.0 0.00 0.00 0.00 31 1010.2
20260502235003 68 275 0.0 2.0 0.00 0.00 0.00 30 1010.2
20260502234002 68 265 2.0 10.0 0.00 0.00 0.00 31 1010.3
20260502233004 68 218 2.0 6.0 0.00 0.00 0.00 30 1010.5
20260502232002 68 259 1.0 5.0 0.00 0.00 0.00 30 1010.5
20260502231002 68 218 1.0 4.0 0.00 0.00 0.00 31 1010.7
20260502230005 67 224 1.0 2.0 0.00 0.00 0.00 32 1010.8
20260502225004 68 220 1.0 3.0 0.00 0.00 0.00 30 1010.9
20260502224003 68 218 1.0 3.0 0.00 0.00 0.00 30 1010.9
20260502223006 68 239 2.0 5.0 0.00 0.00 0.00 29 1011.1
20260502222004 68 254 3.0 6.0 0.00 0.00 0.00 29 1011.2
20260502221004 68 277 4.0 12.0 0.00 0.00 0.00 29 1011.2
20260502220004 69 228 1.0 6.0 0.00 0.00 0.00 30 1011.4
20260502215004 69 257 3.0 11.0 0.00 0.00 0.00 32 1011.6
20260502214004 68 236 4.0 7.0 0.00 0.00 0.00 30 1011.8
20260502213004 68 316 2.0 5.0 0.00 0.00 0.00 32 1011.8
20260502212004 68 316 2.0 12.0 0.00 0.00 0.00 31 1011.9
20260502211005 69 225 5.0 11.0 0.00 0.00 0.00 30 1012.0
20260502210004 69 217 5.0 7.0 0.00 0.00 0.00 31 1012.1
20260502205004 70 256 3.0 8.0 0.00 0.00 0.00 30 1012.3
20260502204003 70 296 1.0 2.0 0.00 0.00 0.00 31 1012.5
20260502203004 70 237 5.0 11.0 0.00 0.00 0.00 29 1012.6
20260502202004 69 265 3.0 6.0 0.00 0.00 0.00 32 1012.8
20260502201004 69 297 5.0 12.0 0.00 0.00 0.00 30 1013.0
20260502200003 68 267 3.0 8.0 0.00 0.00 0.00 30 1013.1
20260502195005 68 271 4.0 8.0 0.00 0.00 0.00 30 1013.3
20260502194018 68 294 3.0 8.0 0.00 0.00 0.00 30 1013.4
20260502193005 68 279 5.0 12.0 0.00 0.00 0.00 29 1013.7
20260502192018 68 301 5.0 10.0 0.00 0.00 0.00 29 1013.7
20260502191003 68 254 2.0 8.0 0.00 0.00 0.00 32 1014.0
20260502190004 68 270 5.0 9.0 0.00 0.00 0.00 30 1014.0
20260502185004 68 306 5.0 10.0 0.00 0.00 0.00 31 1014.1
20260502184003 68 292 4.0 10.0 0.00 0.00 0.00 32 1014.2
20260502183019 68 264 1.0 3.0 0.00 0.00 0.00 33 1014.5
20260502182004 68 334 2.0 4.0 0.00 0.00 0.00 35 1014.6
20260502181003 68 217 7.0 13.0 0.00 0.00 0.00 31 1014.7
20260502164005 63 231 4.0 8.0 0.00 0.00 0.00 38 1016.2
20260502163005 62 210 4.0 5.0 0.00 0.00 0.00 39 1016.4
20260502162003 62 222 3.0 6.0 0.00 0.00 0.00 38 1016.5
20260502161005 61 244 3.0 5.0 0.00 0.00 0.00 39 1016.7
20260502152003 57 231 4.0 7.0 0.00 0.00 0.00 43 1017.4
20260502151005 56 286 1.0 3.0 0.00 0.00 0.00 46 1017.5
20260502123003 38 308 0.0 1.0 0.00 0.00 0.00 73 1018.8
20260502122004 37 308 0.0 0.0 0.00 0.00 0.00 74 1018.9
20260502121005 37 308 0.0 1.0 0.00 0.00 0.00 74 1018.8
20260502115004 36 308 0.0 0.0 0.00 0.00 0.00 73 1018.9
20260502114003 36 308 0.0 3.0 0.00 0.00 0.00 73 1019.0
20260502113004 36 308 0.0 0.0 0.00 0.00 0.00 74 1019.0
20260502112003 36 308 0.0 1.0 0.00 0.00 0.00 74 1019.1
20260502111003 35 308 0.0 0.0 0.00 0.00 0.00 75 1019.0
20260502110004 35 308 0.0 2.0 0.00 0.00 0.00 75 1019.0
20260502105005 35 308 0.0 1.0 0.00 0.00 0.00 74 1019.1
20260502104003 35 308 0.0 0.0 0.00 0.00 0.00 75 1019.0
20260502103004 34 318 1.0 4.0 0.00 0.00 0.00 77 1019.1
20260502102004 34 323 0.0 0.0 0.00 0.00 0.00 77 1019.2
20260502101004 34 323 0.0 0.0 0.00 0.00 0.00 77 1019.2
20260502091004 35 323 0.0 0.0 0.00 0.00 0.00 75 1019.4
20260502071005 38 323 0.0 0.0 0.00 0.00 0.00 69 1019.5
20260502070003 38 323 0.0 0.0 0.00 0.00 0.00 69 1019.5
20260502065004 38 323 0.0 0.0 0.00 0.00 0.00 69 1019.5
20260502064003 38 323 0.0 1.0 0.00 0.00 0.00 73 1019.8
20260502063020 39 323 0.0 0.0 0.00 0.00 0.00 75 1019.8
20260502062003 39 323 0.0 0.0 0.00 0.00 0.00 74 1019.8
20260502061004 40 323 0.0 0.0 0.00 0.00 0.00 66 1019.7
20260502060003 40 323 0.0 0.0 0.00 0.00 0.00 62 1019.7
20260502055018 41 323 0.0 0.0 0.00 0.00 0.00 63 1019.8
20260502054004 41 323 0.0 0.0 0.00 0.00 0.00 62 1019.9
20260502053018 41 323 0.0 0.0 0.00 0.00 0.00 62 1019.9
20260502052018 42 323 0.0 0.0 0.00 0.00 0.00 62 1019.9
20260502051003 42 323 0.0 0.0 0.00 0.00 0.00 62 1020.0
20260502050006 42 323 0.0 0.0 0.00 0.00 0.00 60 1019.9
20260502045003 42 323 0.0 1.0 0.00 0.00 0.00 59 1019.9
20260502044018 42 323 0.0 0.0 0.00 0.00 0.00 59 1019.9
20260502043004 43 323 0.0 0.0 0.00 0.00 0.00 59 1020.0
20260502042004 43 323 0.0 0.0 0.00 0.00 0.00 58 1020.0
20260502041020 43 323 0.0 0.0 0.00 0.00 0.00 58 1020.1
20260502040003 44 323 0.0 0.0 0.00 0.00 0.00 57 1020.1
20260502035003 44 323 0.0 0.0 0.00 0.00 0.00 57 1020.1
20260502034004 44 323 0.0 0.0 0.00 0.00 0.00 57 1020.0
20260502033004 45 323 0.0 0.0 0.00 0.00 0.00 57 1020.0
20260502032003 45 323 0.0 0.0 0.00 0.00 0.00 56 1019.9
20260502031004 45 323 0.0 1.0 0.00 0.00 0.00 55 1019.9
20260502030003 46 323 0.0 0.0 0.00 0.00 0.00 53 1020.0
20260502025004 46 323 0.0 0.0 0.00 0.00 0.00 52 1019.9
20260502024019 46 323 0.0 0.0 0.00 0.00 0.00 51 1019.9
20260502023018 47 323 0.0 0.0 0.00 0.00 0.00 50 1019.8
20260502022003 48 323 0.0 0.0 0.00 0.00 0.00 49 1019.7
20260502021004 48 323 0.0 0.0 0.00 0.00 0.00 48 1019.7